Location: *
(45.5224°N, 122.7471°W)
Time: 22:01:58
(UTC+00:00)

Cosmos 1484 Rocket - Pass Details

Date: 09 April 2020
Orbit: 506 x 559 km, 97.4° (Epoch: 02 June)

Event Time Altitude Azimuth Distance (km) Brightness Sun altitude
Rises 12:43:25 0° 18° (NNE) 2,673 7.0 -9.5°
Reaches altitude 10° 12:45:37 10° 25° (NNE) 1,769 6.1 -9.2°
Maximum altitude 12:49:16 44° 98° (E) 723 4.0 -8.6°
Drops below altitude 10° 12:52:51 10° 172° (S) 1,730 5.2 -8.0°
Sets 12:54:59 0° 179° (S) 2,605 6.1 -7.6°
